Location: Gälforsberget
(66.6500°N, 22.4167°E)
Time: 14:28:39
(UTC+00:00)

USA 229 DEB - Pass Details

Date: 11 April 2026
Orbit: 844 x 1364 km, 63.4° (Epoch: 10 January)

Event Time Altitude Azimuth Distance (km) Brightness Sun altitude
Rises 22:13:06 0° 277° (W) 3,743 6.7 -14.7°
Reaches altitude 10° 22:15:35 10° 275° (W) 2,860 6.1 -14.7°
Maximum altitude 22:22:19 65° 196° (SSW) 1,254 3.8 -14.7°
Drops below altitude 10° 22:29:58 10° 117° (ESE) 3,233 5.9 -14.8°
Sets 22:32:56 0° 115° (ESE) 4,261 6.6 -14.8°
